EW9733 Weather Reports


time (UTC)temp
C
wind
direction
speed
KPH
gust
KPH
rain 1hr
cm
rain 24hr
cm
rain mn
cm
humidity
%
barometer
mb
20260510010030 12 186 0.0 6.4 0.00 0.61 0.61 92 1012.5
20260510004532 12 167 0.0 4.8 0.03 0.61 0.61 92 1012.2
20260510003029 12 154 0.0 8.0 0.03 0.61 0.61 92 1012.3
20260510001528 12 148 1.6 11.3 0.03 0.61 0.61 92 1012.2
20260510000037 12 148 1.6 6.4 0.05 0.61 0.61 92 1012.3
20260509234527 12 120 1.6 8.0 0.13 0.58 0.58 92 1012.2
20260509233026 12 202 0.0 11.3 0.28 0.58 0.58 92 1012.2
20260509231527 12 173 0.0 14.5 0.36 0.58 0.58 92 1012.1
20260509230026 12 153 1.6 12.9 0.41 0.56 0.56 92 1011.8
20260509224525 12 207 3.2 11.3 0.36 0.46 0.46 91 1011.9
20260509223023 12 190 1.6 11.3 0.23 0.30 0.30 91 1011.7
20260509221523 12 207 3.2 12.9 0.18 0.23 0.23 90 1011.5
20260509220023 13 164 1.6 16.1 0.13 0.15 0.15 90 1011.5
20260509214521 13 192 3.2 16.1 0.08 0.10 0.10 89 1011.4
20260509213027 13 163 3.2 16.1 0.05 0.08 0.08 87 1011.3
20260509211520 14 200 8.0 17.7 0.03 0.05 0.05 80 1011.1
20260509210019 15 184 4.8 17.7 0.00 0.03 0.03 77 1010.6
20260509204518 15 194 6.4 14.5 0.00 0.03 0.03 77 1011.1
20260509203017 15 134 4.8 16.1 0.00 0.03 0.03 76 1010.9
20260509201517 16 248 0.0 8.0 0.00 0.03 0.03 69 1010.8
20260509200017 16 158 1.6 12.9 0.00 0.03 0.03 69 1010.8
20260509194516 16 161 6.4 25.7 0.00 0.03 0.03 66 1010.9
20260509193025 16 146 3.2 14.5 0.00 0.03 0.03 69 1010.8
20260509191512 16 213 0.0 16.1 0.00 0.03 0.03 69 1010.7
20260509190012 16 177 3.2 8.0 0.00 0.03 0.03 70 1010.8
20260509184528 16 268 1.6 12.9 0.00 0.03 0.03 70 1011.1
20260509183008 16 187 1.6 11.3 0.00 0.03 0.03 73 1011.1
20260509181508 15 153 3.2 16.1 0.00 0.03 0.03 78 1010.9
20260509180004 15 159 1.6 8.0 0.00 0.03 0.03 77 1011.6
20260509174503 15 169 1.6 14.5 0.00 0.03 0.03 72 1011.9
20260509173002 16 164 4.8 16.1 0.00 0.03 0.03 68 1012.0
20260509171500 16 198 4.8 11.3 0.00 0.03 0.03 67 1011.8
20260509170107 16 155 0.0 8.0 0.00 0.03 0.03 70 1011.9
20260509164559 15 249 0.0 11.3 0.00 0.03 0.03 70 1011.9
20260509163057 15 167 0.0 11.3 0.00 0.03 0.03 71 1011.9
20260509161552 15 181 3.2 12.9 0.00 0.03 0.03 71 1012.2
20260509160051 15 183 1.6 9.7 0.00 0.03 0.03 71 1012.3
20260509154549 15 180 0.0 12.9 0.00 0.03 0.03 72 1012.6
20260509153055 14 144 1.6 11.3 0.00 0.03 0.03 73 1012.8
20260509151540 13 158 3.2 11.3 0.00 0.03 0.03 75 1012.8
20260509150037 12 178 0.0 14.5 0.00 0.03 0.03 75 1012.7
20260509144534 12 131 1.6 8.0 0.00 0.03 0.03 76 1013.0
20260509143031 11 159 3.2 8.0 0.00 0.03 0.03 79 1013.3
20260509141527 11 139 0.0 6.4 0.00 0.03 0.03 83 1013.4
20260509140023 10 150 3.2 9.7 0.00 0.03 0.03 88 1013.7
20260509134519 10 195 1.6 8.0 0.00 0.03 0.03 91 1013.9
20260509133015 8 150 0.0 1.6 0.00 0.03 0.03 92 1013.9
20260509131513 7 155 0.0 3.2 0.00 0.03 0.03 91 1014.0
20260509130016 7 157 0.0 0.0 0.00 0.03 0.03 91 1013.9
20260509124504 7 157 0.0 0.0 0.00 0.03 0.03 90 1013.6
20260509123002 7 157 0.0 1.6 0.03 0.03 0.03 90 1013.9
20260509121501 6 157 0.0 0.0 0.03 0.03 0.03 90 1014.2
20260509120100 6 157 0.0 4.8 0.03 0.03 0.03 90 1014.5
20260509114604 6 158 0.0 8.0 0.03 0.03 0.03 90 1014.7
20260509113059 6 153 0.0 6.4 0.00 0.00 0.00 90 1014.7
20260509111555 5 167 0.0 8.0 0.00 0.00 0.00 91 1014.8
20260509110053 5 144 0.0 1.6 0.00 0.00 0.00 90 1014.6
20260509104553 4 144 0.0 0.0 0.00 0.00 0.00 90 1014.3
20260509103059 3 144 0.0 0.0 0.00 0.00 0.00 90 1014.0
20260509101559 3 144 0.0 0.0 0.00 0.00 0.00 89 1013.6
20260509100045 3 144 0.0 0.0 0.00 0.00 0.00 89 1013.5
20260509094551 2 144 0.0 0.0 0.00 0.00 0.00 88 1013.3
20260509093043 2 144 0.0 0.0 0.00 0.00 0.00 87 1013.3
20260509091544 2 144 0.0 0.0 0.00 0.00 0.00 86 1013.4
20260509090047 2 144 0.0 0.0 0.00 0.00 0.00 85 1013.2
20260509084544 3 144 0.0 0.0 0.00 0.00 0.00 85 1013.0
20260509083050 3 144 0.0 0.0 0.00 0.00 0.00 85 1013.2
20260509081535 3 144 0.0 0.0 0.00 0.00 0.00 84 1013.4
20260509080034 3 144 0.0 0.0 0.00 0.00 0.00 84 1013.5
20260509074532 3 144 0.0 0.0 0.00 0.00 0.00 84 1013.3
20260509073033 3 144 0.0 0.0 0.00 0.00 0.00 85 1013.4
20260509071535 3 144 0.0 0.0 0.00 0.00 0.00 84 1013.4
20260509070028 3 144 0.0 1.6 0.00 0.00 0.00 84 1013.3
20260509064527 3 136 1.6 6.4 0.00 0.00 0.00 84 1013.3
20260509063024 3 30 0.0 0.0 0.00 0.00 0.00 83 1012.9
20260509061523 4 30 0.0 0.0 0.00 0.00 0.00 83 1012.9
20260509060020 4 30 0.0 0.0 0.00 0.00 0.00 81 1012.9
20260509054519 4 30 0.0 1.6 0.00 0.00 0.00 80 1012.9
20260509053018 4 30 0.0 0.0 0.00 0.00 0.00 79 1013.0
20260509051515 5 29 0.0 0.0 0.00 0.00 0.00 78 1012.9
20260509050018 5 30 0.0 0.0 0.00 0.00 0.00 77 1012.9
20260509044510 5 29 0.0 0.0 0.00 0.00 0.00 76 1012.9
20260509043009 5 29 0.0 0.0 0.00 0.00 0.00 75 1012.7
20260509041505 6 29 0.0 0.0 0.00 0.00 0.00 75 1012.5
20260509040003 6 29 0.0 0.0 0.00 0.00 0.00 73 1012.4
20260509034502 6 29 0.0 0.0 0.00 0.00 0.00 73 1012.5
20260509033101 6 29 0.0 0.0 0.00 0.00 0.00 73 1012.5
20260509033001 6 29 0.0 0.0 0.00 0.00 0.00 73 1012.5
20260509031603 7 29 0.0 0.0 0.00 0.00 0.00 72 1012.4
20260509030114 7 29 0.0 0.0 0.00 0.00 0.00 72 1012.4
20260509024601 7 29 0.0 0.0 0.00 0.00 0.00 69 1012.2
20260509023058 7 29 0.0 0.0 0.00 0.00 0.00 68 1012.1
20260509021554 8 29 0.0 0.0 0.00 0.00 0.00 67 1012.0
20260509014549 8 29 0.0 3.2 0.00 0.00 0.00 66 1011.4
20260509013046 8 21 0.0 0.0 0.00 0.00 0.00 65 1011.2
20260509011545 8 21 0.0 0.0 0.00 0.00 0.00 64 1010.9